Regional Weather Roundup
Issued by NWS

Home | Current Version | Previous Version | Text Only | Print | Product List | Glossary Off
Versions: 1 2 3 4 5 6 7 8 9 10 11 12 13 14 15 16 17 18 19 20 21 22 23 24 25 26 27 28 29 30 31 32 33 34 35 36 37 38 39 40 41 42 43 44 45 46 47 48 49 50

000
ASUS43 KDTX 260201
RWRMI
MICHIGAN HOURLY REGIONAL WEATHER ROUNDUP
NATIONAL WEATHER SERVICE DETROIT/PONTIAC MI
1000 PM EDT WED MAY 25 2016

NOTE: "FAIR" INDICATES FEW OR NO CLOUDS BELOW 12,000 FEET WITH NO
SIGNIFICANT WEATHER AND/OR OBSTRUCTION TO VISIBILITY.

MIZ047>049-052>055-059>063-066>070-074>076-081>083-260300-
SOUTHEAST LOWER MICHIGAN

CITY           SKY/WX    TMP DP  RH WIND       PRES   REMARKS
ADRIAN         PTCLDY    74  58  57 SE3       29.99S
ALMA           PTCLDY    74  58  57 S3        29.97R
ANN ARBOR      PTCLDY    73  58  59 SE5       30.00R
BAD AXE        PTCLDY    61  52  73 CALM      30.00S
CARO           PTCLDY    69  58  69 E5        29.98R
DETROIT CITY   MOCLDY    76  57  51 S8        30.02R
DETROIT        CLOUDY    76  58  53 SE7       30.01R
FLINT          CLOUDY    76  58  53 S6        29.99R
GROSSE ILE     CLOUDY    75  57  53 SE10      30.00R
HILLSDALE      PTCLDY    73  54  50 E3        30.00S
HOWELL         CLOUDY    73  57  58 SE7       30.00S

CITY           SKY/WX    TMP DP  RH WIND       PRES   REMARKS
JACKSON        PTCLDY    73  58  59 SE8       29.99R
LAMBERTVILLE   CLOUDY    76  60  57 SE7       30.00S
LANSING        CLOUDY    76  59  55 SE7       29.98R
LAPEER         FAIR      73  57  56 S6        30.01R
MASON          CLOUDY    74  59  58 SE5       29.99S
MONROE         CLOUDY    74  60  62 SE8       30.00R
MT. CLEMENS    PTCLDY    68  60  75 S7        30.01R
PONTIAC        MOCLDY    75  58  55 S6        30.01R
PORT HOPE        N/A     59  53  80 SE9       29.99S
PORT HURON     PTCLDY    68  59  73 CALM      30.02R
TRI CITIES     PTCLDY    64  57  78 NE9       29.99R
MIDLAND        MOCLDY    64  56  74 CALM      29.99R
TROY           CLOUDY    77  57  50 S5        30.04R
SAGINAW HB     PTCLDY    66  61  82 NW6       29.98R
$$
MIZ043>046-050>051-056>058-064>065-071>073-077>080-260300-
SOUTHWEST LOWER MICHIGAN

CITY           SKY/WX    TMP DP  RH WIND       PRES   REMARKS
BATTLE CREEK   CLOUDY    77  59  53 SE6       29.97S
BENTON HARBOR  CLOUDY    66  62  87 CALM      29.95S
BIG RAPIDS     CLOUDY    67  65  91 SW5       29.97R
COLDWATER      CLOUDY    73  59  61 SE5       29.98R
FREMONT        FAIR      73  65  78 E5        29.92F
HOLLAND        LGT RAIN  68  63  84 W17G24    29.97R
GRAND RAPIDS   MOCLDY    77  60  55 SE5       29.94S
IONIA          FAIR      74  57  55 SE7       29.95S
KALAMAZOO      CLOUDY    76  59  55 SE3       29.95S
LUDINGTON      CLOUDY    68  63  83 CALM      29.91F
MARSHALL       PTCLDY    74  59  59 SE5       29.97S
MOUNT PLEASANT PTCLDY    67  59  73 NE7       29.98R
MUSKEGON       CLOUDY    71  58  63 SW14G26   29.95R THUNDER
SOUTH HAVEN    LGT RAIN  66  63  91 N5        29.96F
$$
MIZ016>042-260300-
NORTHERN LOWER MICHIGAN

CITY           SKY/WX    TMP DP  RH WIND       PRES   REMARKS
ALPENA         CLOUDY    59  51  75 S5        30.03R
BEAVER ISLAND  CLOUDY    62  55  76 E10G16    29.96S
BELLAIRE       PTCLDY    67  62  83 CALM      29.96R
CADILLAC       CLOUDY    66  61  84 SE7G20    29.98R
CHARLEVOIX     CLOUDY    69  58  68 SE7       29.98S
FRANKFORT      LGT RAIN  69  62  77 CALM      29.92F
GAYLORD        CLOUDY    66  55  67 VRB5      30.01R
GRAYLING       CLOUDY    65  59  82 E6        30.02R
HARBOR SPRINGS CLOUDY    66  57  71 E13       29.97S
HOUGHTON LAKE  CLOUDY    63  58  83 E3        30.00S
MANISTEE       CLOUDY    70  61  73 E7        29.93F
OSCODA         MOCLDY    62  53  72 NE6       30.01S
PELLSTON       MOCLDY    66  55  67 E10       29.98F
ROGERS CITY    PTCLDY    63  52  68 SE6       30.03R
TRAVERSE CITY  CLOUDY    69  59  70 CALM      29.94S
$$
MIZ007>008-015-260300-
EASTERN UPPER MICHIGAN

CITY           SKY/WX    TMP DP  RH WIND       PRES   REMARKS
KINROSS          N/A     61  54  77 SE10      30.01F
MACKINAC ISLAN CLOUDY    59  52  77 E9G16     30.00S
NEWBERRY       CLOUDY    63  56  78 E8        29.98F
S. S. MARIE    CLOUDY    63  54  72 SE7       30.01S
MUNISING         N/A     49  45  86 CALM      29.96S
$$
MIZ004>006-011>014-085-260300-
CENTRAL UPPER MICHIGAN

CITY           SKY/WX    TMP DP  RH WIND       PRES   REMARKS
MANISTIQUE     CLOUDY    64  56  75 E9        29.95S
ESCANABA       CLOUDY    63  55  77 E7        29.93S
MENOMINEE      CLOUDY    59  55  88 E6        29.92F
SAWYER-GWINN   PTCLDY    52  48  87 CALM      29.95F
$$
MIZ001>003-009>011-084-260300-
WESTERN UPPER MICHIGAN

CITY           SKY/WX    TMP DP  RH WIND       PRES   REMARKS
IRON MOUNTAIN  LGT RAIN  61  57  87 E6        29.90F
HOUGHTON       CLOUDY    49  46  90 E14       29.94R
COPPER HARBOR    N/A     49  43  80 VRB3      29.95F
IRONWOOD       CLOUDY    48  48 100 W7        29.91R
$$

ABBREVIATIONS USED IN REMARKS
   TC - TEMPERATURE IN CELSIUS
  WCI - WIND CHILL INDEX
   HX - HEAT INDEX
  VSB - VISIBILITY




USA.gov is the U.S. government's official web portal to all federal, state and local government web resources and services.